Regional Weather Roundup
Issued by NWS

Home | Current Version | Previous Version | Graphics & Text | Print | Product List | Glossary On
Versions: 1 2 3 4 5 6 7 8 9 10 11 12 13 14 15 16 17 18 19 20 21 22 23 24 25 26 27 28 29 30 31 32 33 34 35 36 37 38 39 40 41 42 43 44 45 46 47 48 49 50
164
ASUS45 KSLC 262310
RWRUT

UTAH REGIONAL WEATHER ROUNDUP
NATIONAL WEATHER SERVICE SALT LAKE CITY UT
500 PM MDT TUE JUL 26 2016

UTZ001>011-023>025-270000-

NORTHERN UTAH

CITY           SKY/WX    TMP DP  RH WIND       PRES   REMARKS
BRIGHAM CITY     N/A     99  12   4 SW7       29.99F HX  92
HILL AFB       SUNNY     97  26   8 W10       30.06S HX  90
LOGAN          SUNNY     97  33  10 S13       30.00F HX  91
OGDEN          SUNNY     98  27   8 W10       30.02S HX  92
PROVO AIRPORT  MOSUNNY   99  41  13 SE7       29.99F HX  94
SALT LAKE CITY MOSUNNY  102  22   6 NW15G25   29.98F HX  94
VERNAL         CLOUDY    87  37  17 W7        30.13F
WENDOVER       SUNNY    100  34  10 S3        29.98F HX  94
HEBER CITY     PTSUNNY   90  41  18 NW5       30.09S

$$

UTZ012>022-026-027-270000-

SOUTHERN/CENTRAL UTAH

CITY           SKY/WX    TMP DP  RH WIND       PRES   REMARKS
BLANDING       MOSUNNY   90  38  16 NW14      30.22S
BRYCE CANYON   PTSUNNY   79  34  19 SE8       30.35S
CEDAR CITY     MOSUNNY   96  42  15 SW15G22   30.11F HX  92
DELTA          SUNNY     99  30   9 NW3       30.02F HX  92
MILFORD        SUNNY     98  32  10 S7        30.04F HX  92
MOAB/CYNLANDS  SUNNY    103  36  10 VRB6G17   29.99F HX  97
PRICE          PTSUNNY   95  32  11 NE8       30.12F HX  90
ST GEORGE      MOCLDY   106  45  12 W7        29.89F HX 101

$$

REGIONAL REPORTS     COLORADO/ARIZONA

CITY           SKY/WX    TMP DP  RH WIND       PRES   REMARKS
CRAIG, CO      CLOUDY    74  42  31 S15       30.26S
GRAND JUNCTION CLOUDY    93  38  14 SE12      30.07R
RIFLE          CLOUDY    91  35  13 E10G17    30.15S
MONTROSE       CLOUDY    88  39  17 NW9       30.17F
CORTEZ         CLOUDY    90  42  18 NW9       30.15F
PAGE, AZ       MOSUNNY  102  38  11 N22G30    30.02S HX  96
GRAND CANYON   MOSUNNY   85  45  24 S5        30.25F
KINGMAN        PTSUNNY  101  44  14 VRB5      29.95F HX  97
FLAGSTAFF      PTSUNNY   73  55  53 CALM      30.29F

$$

REGIONAL REPORTS    NEVADA/IDAHO/WYOMING

CITY           SKY/WX    TMP DP  RH WIND       PRES   REMARKS
LAS VEGAS, NV  MOSUNNY  111  35   7 NE6       29.78F HX 104
ELY            SUNNY     94  16   6 VRB3      30.16F
ELKO           SUNNY     98  11   4 W17G28    30.09F HX  91
POCATELLO, ID  SUNNY     98  27   8 W15       30.02F HX  92
BURLEY         SUNNY     93  31  11 NW8G16    30.00F
EVANSTON, WY   CLOUDY    88  21   8 W24G33    30.24S
ROCK SPRINGS   NOT AVBL
KEMMERER         N/A     86  19   8 W16G32    30.25S

$$




USA.gov is the U.S. government's official web portal to all federal, state and local government web resources and services.